Regional Weather Roundup
Issued by NWS

Home | Current Version | Previous Version | Text Only | Print | Product List | Glossary On
Versions: 1 2 3 4 5 6 7 8 9 10 11 12 13 14 15 16 17 18 19 20 21 22 23 24 25 26 27 28 29 30 31 32 33 34 35 36 37 38 39 40 41 42 43 44 45 46 47 48 49 50
510
ASUS46 KPQR 141310
RWROR

OREGON REGIONAL WEATHER ROUNDUP
NATIONAL WEATHER SERVICE PORTLAND OR
500 AM PST SUN FEB 14 2016

NOTE: "FAIR" INDICATES FEW OR NO CLOUDS BELOW 12,000 FEET WITH
NO SIGNIFICANT WEATHER AND/OR OBSTRUCTIONS TO VISIBILITY.

ORZ001>013-141400-
NORTHWEST OREGON


CITY           SKY/WX    TMP DP  RH WIND       PRES   REMARKS
ASTORIA        LGT RAIN  52  51  97 S7        30.13F FOG
NEWPORT        RAIN      52  52 100 S17G25    30.29S
PORTLAND       LGT RAIN  51  48  89 S7        30.20F
VANCOUVER WA   LGT RAIN  50  48  93 CALM      30.19F
SCAPPOOSE      LGT RAIN  48  47  96 CALM      30.18F
HILLSBORO      LGT RAIN  48  46  93 S8        30.18F
AURORA         LGT RAIN  50  48  93 S14       30.22S
MCMINNVILLE    LGT RAIN  50  50 100 CALM      30.21S FOG
SALEM          LGT RAIN  51  47  86 S17       30.22S
CORVALLIS      CLOUDY    54  46  76 S15       30.25R
EUGENE         LGT RAIN  50  47  89 S12       30.27S
$$

ORZ021-028-141400-
SOUTHWEST OREGON


CITY           SKY/WX    TMP DP  RH WIND       PRES   REMARKS
NORTH BEND     CLOUDY    54  52  94 S17G24    30.31F
BROOKINGS      LGT RAIN  46  46 100 VRB5      30.40F FOG
ROSEBURG       LGT RAIN  51  46  83 CALM      30.32R
SEXTON SUMMIT  LGT RAIN  40  40 100 SW15G22   30.31F VSB 1/4 WCI  32
MEDFORD        CLOUDY    46  43  89 N3        30.37F
$$

ORZ014>016-041-141400-
COLUMBIA GORGE


CITY           SKY/WX    TMP DP  RH WIND       PRES   REMARKS
TROUTDALE      LGT RAIN  49  47  93 E5        30.21S
THE DALLES     LGT RAIN  43  41  93 CALM      30.18F
$$

ORZ029>031-041-044-049-050-061>064-502-503-505>511-141400-
EASTERN OREGON


CITY           SKY/WX    TMP DP  RH WIND       PRES   REMARKS
REDMOND        LGT RAIN  41  38  89 NE3       30.20R
BEND           CLOUDY    46  39  76 SW8G15    30.18S
PRINEVILLE     CLOUDY    39  39 100 CALM      30.21S
KLAMATH FALLS  CLOUDY    40  38  93 SW7       30.31F
LAKEVIEW       CLOUDY    37  34  87 S9        30.32F WCI  31
HERMISTON      CLOUDY    45  40  82 S3        30.13F
PENDLETON      CLOUDY    43  39  86 S7        30.13F
JOHN DAY       RAIN      36  35  96 E7        30.22S WCI  31
MEACHAM        LGT RAIN  35  33  92 CALM      30.14  FOG
LA GRANDE      CLOUDY    39  34  81 SE3G17    30.16F
BAKER CITY     LGT RAIN  33  33 100 CALM      30.20R
BURNS          LGT RAIN  36  32  85 CALM      30.23R
ROME             N/A     46  36  68 VRB7      30.21R
ONTARIO        LGT RAIN  39  36  89 CALM      30.25R
$$




USA.gov is the U.S. government's official web portal to all federal, state and local government web resources and services.